Time,TemperatureF,DewpointF,PressureIn,WindDirection,WindDirectionDegrees,WindSpeedMPH,WindSpeedGustMPH,Humidity,HourlyPrecipIn,Conditions,Clouds,dailyrainin,SoftwareType,DateUTC
2013-03-01 00:00:00,38.5,21.9,29.32,NW,317,0.0,0.0,51,0.00,,---,0.00,VWS V12.07,2013-03-01 05:00:00,
2013-03-01 00:07:00,38.5,21.9,29.32,NW,316,0.0,0.0,51,0.00,,---,0.00,VWS V12.07,2013-03-01 05:07:00,
2013-03-01 00:10:00,38.5,21.9,29.32,NW,316,0.0,0.0,51,0.00,,---,0.00,VWS V12.07,2013-03-01 05:10:00,
2013-03-01 00:16:00,38.5,21.9,29.32,NW,317,0.0,0.0,51,0.00,,---,0.00,VWS V12.07,2013-03-01 05:16:00,
2013-03-01 00:19:00,38.5,21.9,29.32,NW,317,0.0,0.0,51,0.00,,---,0.00,VWS V12.07,2013-03-01 05:19:00,
2013-03-01 00:25:00,38.5,21.9,29.32,NW,317,0.0,0.0,51,0.00,,---,0.00,VWS V12.07,2013-03-01 05:25:00,
2013-03-01 00:32:00,38.3,21.8,29.32,NW,317,0.0,0.0,51,0.00,,---,0.00,VWS V12.07,2013-03-01 05:32:00,
2013-03-01 00:40:00,38.3,21.8,29.32,NW,317,2.7,2.7,51,0.00,,---,0.00,VWS V12.07,2013-03-01 05:40:00,
2013-03-01 00:46:00,38.1,21.6,29.32,NW,318,0.0,0.0,51,0.00,,---,0.00,VWS V12.07,2013-03-01 05:46:00,
2013-03-01 00:52:00,38.1,21.6,29.32,NW,318,0.0,0.0,51,0.00,,---,0.00,VWS V12.07,2013-03-01 05:52:00,
2013-03-01 00:58:00,37.9,21.4,29.32,NW,318,0.0,0.0,51,0.00,,---,0.00,VWS V12.07,2013-03-01 05:58:00,
2013-03-01 01:04:00,37.8,21.3,29.32,NW,319,0.0,0.0,51,0.00,,---,0.00,VWS V12.07,2013-03-01 06:04:00,
2013-03-01 01:10:00,37.6,21.1,29.32,NW,318,0.0,0.0,51,0.00,,---,0.00,VWS V12.07,2013-03-01 06:10:00,
2013-03-01 01:16:00,37.6,21.1,29.32,NW,319,0.0,0.0,51,0.00,,---,0.00,VWS V12.07,2013-03-01 06:16:00,
2013-03-01 01:22:00,37.4,20.9,29.35,NW,318,0.0,0.0,51,0.00,,---,0.00,VWS V12.07,2013-03-01 06:22:00,
2013-03-01 01:28:00,37.4,20.9,29.35,ENE,60,0.0,0.0,51,0.00,,---,0.00,VWS V12.07,2013-03-01 06:28:00,
2013-03-01 01:34:00,37.2,21.2,29.35,NE,37,0.0,0.0,52,0.00,,---,0.00,VWS V12.07,2013-03-01 06:34:00,
2013-03-01 01:40:00,37.0,21.1,29.32,NNE,24,0.0,3.1,52,0.00,,---,0.00,VWS V12.07,2013-03-01 06:40:00,
2013-03-01 01:46:00,37.0,21.1,29.32,NE,42,0.0,2.7,52,0.00,,---,0.00,VWS V12.07,2013-03-01 06:46:00,
2013-03-01 01:53:00,37.0,21.1,29.35,NE,42,0.0,2.7,52,0.00,,---,0.00,VWS V12.07,2013-03-01 06:53:00,
2013-03-01 01:59:00,37.0,20.6,29.35,NE,42,0.0,0.0,51,0.00,,---,0.00,VWS V12.07,2013-03-01 06:59:00,
2013-03-01 02:06:00,36.9,20.4,29.32,NNE,29,0.0,3.1,51,0.00,,---,0.00,VWS V12.07,2013-03-01 07:06:00,
2013-03-01 02:14:00,36.9,20.4,29.32,NNE,29,0.0,0.0,51,0.00,,---,0.00,VWS V12.07,2013-03-01 07:14:00,
2013-03-01 02:21:00,36.9,20.4,29.35,NNE,31,0.0,2.7,51,0.00,,---,0.00,VWS V12.07,2013-03-01 07:21:00,
2013-03-01 02:28:00,36.9,20.4,29.35,NNE,31,0.0,2.7,51,0.00,,---,0.00,VWS V12.07,2013-03-01 07:28:00,
2013-03-01 02:36:00,36.7,20.3,29.35,NNE,31,0.0,0.0,51,0.00,,---,0.00,VWS V12.07,2013-03-01 07:36:00,
2013-03-01 02:42:00,36.7,20.3,29.35,NNE,31,0.0,0.0,51,0.00,,---,0.00,VWS V12.07,2013-03-01 07:42:00,
2013-03-01 02:49:00,36.7,20.3,29.35,NNE,31,0.0,0.0,51,0.00,,---,0.00,VWS V12.07,2013-03-01 07:49:00,
2013-03-01 02:55:00,36.7,20.3,29.35,NNE,31,0.0,0.0,51,0.00,,---,0.00,VWS V12.07,2013-03-01 07:55:00,
2013-03-01 03:02:00,36.7,20.3,29.35,NNE,31,0.0,0.0,51,0.00,,---,0.00,VWS V12.07,2013-03-01 08:02:00,
2013-03-01 03:10:00,36.7,20.3,29.35,NNE,31,0.0,0.0,51,0.00,,---,0.00,VWS V12.07,2013-03-01 08:10:00,
2013-03-01 03:17:00,36.5,20.1,29.35,NNE,12,0.0,3.6,51,0.00,,---,0.00,VWS V12.07,2013-03-01 08:17:00,
2013-03-01 03:25:00,36.5,20.1,29.35,NNE,12,0.0,3.6,51,0.00,,---,0.00,VWS V12.07,2013-03-01 08:25:00,
2013-03-01 03:32:00,36.5,20.1,29.35,West,264,3.1,3.1,51,0.00,,---,0.00,VWS V12.07,2013-03-01 08:32:00,
2013-03-01 03:39:00,36.5,20.1,29.35,NW,315,0.0,3.1,51,0.00,,---,0.00,VWS V12.07,2013-03-01 08:39:00,
2013-03-01 03:46:00,36.5,20.1,29.35,NW,315,0.0,0.0,51,0.00,,---,0.00,VWS V12.07,2013-03-01 08:46:00,
2013-03-01 03:51:00,36.5,20.1,29.35,NW,315,0.0,0.0,51,0.00,,---,0.00,VWS V12.07,2013-03-01 08:51:00,
2013-03-01 03:57:00,36.5,20.1,29.35,NW,315,0.0,0.0,51,0.00,,---,0.00,VWS V12.07,2013-03-01 08:57:00,
2013-03-01 04:04:00,36.5,20.1,29.35,NW,315,0.0,0.0,51,0.00,,---,0.00,VWS V12.07,2013-03-01 09:04:00,
2013-03-01 04:10:00,36.5,20.1,29.35,NW,315,0.0,0.0,51,0.00,,---,0.00,VWS V12.07,2013-03-01 09:10:00,
2013-03-01 04:16:00,36.5,20.1,29.35,NW,315,0.0,0.0,51,0.00,,---,0.00,VWS V12.07,2013-03-01 09:16:00,
2013-03-01 04:24:00,36.5,20.1,29.35,NW,315,0.0,0.0,51,0.00,,---,0.00,VWS V12.07,2013-03-01 09:24:00,
2013-03-01 04:32:00,36.5,20.1,29.35,NW,315,0.0,0.0,51,0.00,,---,0.00,VWS V12.07,2013-03-01 09:32:00,
2013-03-01 04:40:00,36.5,20.1,29.35,NW,315,0.0,0.0,51,0.00,,---,0.00,VWS V12.07,2013-03-01 09:40:00,
2013-03-01 04:48:00,36.3,19.9,29.35,NW,315,0.0,0.0,51,0.00,,---,0.00,VWS V12.07,2013-03-01 09:48:00,
2013-03-01 04:55:00,36.3,19.9,29.35,NW,315,0.0,0.0,51,0.00,,---,0.00,VWS V12.07,2013-03-01 09:55:00,
2013-03-01 05:02:00,36.3,19.5,29.35,NW,315,0.0,0.0,50,0.00,,---,0.00,VWS V12.07,2013-03-01 10:02:00,
2013-03-01 05:10:00,36.3,19.5,29.35,NW,315,0.0,0.0,50,0.00,,---,0.00,VWS V12.07,2013-03-01 10:10:00,
2013-03-01 05:18:00,36.3,19.5,29.35,NW,315,0.0,0.0,50,0.00,,---,0.00,VWS V12.07,2013-03-01 10:18:00,
2013-03-01 05:26:00,36.3,19.5,29.35,NW,315,0.0,0.0,50,0.00,,---,0.00,VWS V12.07,2013-03-01 10:26:00,
2013-03-01 05:34:00,36.3,19.5,29.35,NW,315,0.0,0.0,50,0.00,,---,0.00,VWS V12.07,2013-03-01 10:34:00,
2013-03-01 05:40:00,36.3,19.5,29.38,NW,316,0.0,0.0,50,0.00,,---,0.00,VWS V12.07,2013-03-01 10:40:00,
2013-03-01 05:47:00,36.3,19.5,29.38,NW,316,0.0,0.0,50,0.00,,---,0.00,VWS V12.07,2013-03-01 10:47:00,
2013-03-01 05:54:00,36.3,19.5,29.35,NW,315,0.0,0.0,50,0.00,,---,0.00,VWS V12.07,2013-03-01 10:54:00,
2013-03-01 06:02:00,36.3,19.5,29.35,NW,316,0.0,0.0,50,0.00,,---,0.00,VWS V12.07,2013-03-01 11:02:00,
2013-03-01 06:10:00,36.1,19.3,29.38,NW,315,0.0,0.0,50,0.00,,---,0.00,VWS V12.07,2013-03-01 11:10:00,
2013-03-01 06:18:00,36.0,19.1,29.38,NW,316,0.0,0.0,50,0.00,,---,0.00,VWS V12.07,2013-03-01 11:18:00,
2013-03-01 06:25:00,35.8,19.0,29.38,NW,315,0.0,0.0,50,0.00,,---,0.00,VWS V12.07,2013-03-01 11:25:00,
2013-03-01 06:33:00,35.6,18.3,29.38,NW,315,0.0,0.0,49,0.00,,---,0.00,VWS V12.07,2013-03-01 11:33:00,
2013-03-01 06:41:00,35.4,18.6,29.38,NW,315,0.0,0.0,50,0.00,,---,0.00,VWS V12.07,2013-03-01 11:41:00,
2013-03-01 06:48:00,35.4,18.6,29.38,NW,315,0.0,0.0,50,0.00,,---,0.00,VWS V12.07,2013-03-01 11:48:00,
2013-03-01 06:56:00,35.4,18.6,29.38,NW,315,0.0,0.0,50,0.00,,---,0.00,VWS V12.07,2013-03-01 11:56:00,
2013-03-01 07:04:00,35.4,18.6,29.38,NW,316,0.0,0.0,50,0.00,,---,0.00,VWS V12.07,2013-03-01 12:04:00,
2013-03-01 07:11:00,35.4,18.6,29.38,NW,316,0.0,0.0,50,0.00,,---,0.00,VWS V12.07,2013-03-01 12:11:00,
2013-03-01 07:19:00,35.4,18.6,29.38,NW,315,0.0,0.0,50,0.00,,---,0.00,VWS V12.07,2013-03-01 12:19:00,
2013-03-01 07:27:00,35.6,18.8,29.38,NW,316,0.0,0.0,50,0.00,,---,0.00,VWS V12.07,2013-03-01 12:27:00,
2013-03-01 07:35:00,35.8,19.0,29.38,NW,315,0.0,0.0,50,0.00,,---,0.00,VWS V12.07,2013-03-01 12:35:00,
2013-03-01 07:43:00,36.0,19.6,29.38,NW,315,0.0,0.0,51,0.00,,---,0.00,VWS V12.07,2013-03-01 12:43:00,
2013-03-01 07:51:00,36.1,19.8,29.41,NW,316,0.0,0.0,51,0.00,,---,0.00,VWS V12.07,2013-03-01 12:51:00,
2013-03-01 07:59:00,36.3,19.9,29.41,NW,315,0.0,0.0,51,0.00,,---,0.00,VWS V12.07,2013-03-01 12:59:00,
2013-03-01 08:05:00,36.7,20.3,29.41,NW,315,0.0,0.0,51,0.00,,---,0.00,VWS V12.07,2013-03-01 13:05:00,
2013-03-01 08:11:00,36.9,20.9,29.41,WNW,298,0.0,4.0,52,0.00,,---,0.00,VWS V12.07,2013-03-01 13:11:00,
2013-03-01 08:19:00,37.4,20.9,29.41,West,261,0.0,3.6,51,0.00,,---,0.00,VWS V12.07,2013-03-01 13:19:00,
2013-03-01 08:27:00,37.6,21.1,29.41,West,261,0.0,3.6,51,0.00,,---,0.00,VWS V12.07,2013-03-01 13:27:00,
2013-03-01 08:35:00,37.9,21.4,29.41,NW,318,0.0,7.2,51,0.00,,---,0.00,VWS V12.07,2013-03-01 13:35:00,
2013-03-01 08:43:00,38.3,21.3,29.41,North,7,0.0,7.2,50,0.00,,---,0.00,VWS V12.07,2013-03-01 13:43:00,
2013-03-01 08:51:00,38.5,21.0,29.41,West,261,4.5,4.5,49,0.00,,---,0.00,VWS V12.07,2013-03-01 13:51:00,
2013-03-01 08:59:00,38.5,19.5,29.41,South,170,0.0,0.0,46,0.00,,---,0.00,VWS V12.07,2013-03-01 13:59:00,
2013-03-01 09:06:00,38.5,17.9,29.41,NW,325,4.9,6.3,43,0.00,,---,0.00,VWS V12.07,2013-03-01 14:06:00,
2013-03-01 09:14:00,38.5,17.4,29.41,North,357,0.0,0.0,42,0.00,,---,0.00,VWS V12.07,2013-03-01 14:14:00,
2013-03-01 09:21:00,38.7,17.6,29.41,ENE,61,0.0,0.0,42,0.00,,---,0.00,VWS V12.07,2013-03-01 14:21:00,
2013-03-01 09:29:00,38.8,17.2,29.41,NNE,15,0.0,0.0,41,0.00,,---,0.00,VWS V12.07,2013-03-01 14:29:00,
2013-03-01 09:36:00,39.0,17.3,29.41,ENE,64,0.0,2.7,41,0.00,,---,0.00,VWS V12.07,2013-03-01 14:36:00,
2013-03-01 09:44:00,39.2,16.3,29.41,NE,54,0.0,2.7,39,0.00,,---,0.00,VWS V12.07,2013-03-01 14:44:00,
2013-03-01 09:52:00,39.2,16.3,29.41,SSW,207,0.0,6.3,39,0.00,,---,0.00,VWS V12.07,2013-03-01 14:52:00,
2013-03-01 10:00:00,39.4,16.5,29.41,NNW,341,0.0,0.0,39,0.00,,---,0.00,VWS V12.07,2013-03-01 15:00:00,
2013-03-01 10:08:00,39.7,16.2,29.41,NE,39,0.0,4.9,38,0.00,,---,0.00,VWS V12.07,2013-03-01 15:08:00,
2013-03-01 10:16:00,40.1,15.9,29.41,NE,51,2.7,3.6,37,0.00,,---,0.00,VWS V12.07,2013-03-01 15:16:00,
2013-03-01 10:24:00,40.5,16.3,29.41,North,353,3.6,3.6,37,0.00,,---,0.00,VWS V12.07,2013-03-01 15:24:00,
2013-03-01 10:32:00,40.6,15.8,29.41,NE,35,0.0,4.0,36,0.00,,---,0.00,VWS V12.07,2013-03-01 15:32:00,
2013-03-01 10:39:00,41.0,16.1,29.41,NNE,12,0.0,4.0,36,0.00,,---,0.00,VWS V12.07,2013-03-01 15:39:00,
2013-03-01 10:47:00,41.2,15.0,29.41,NNE,18,4.0,4.0,34,0.00,,---,0.00,VWS V12.07,2013-03-01 15:47:00,
2013-03-01 10:55:00,41.2,15.0,29.41,WNW,291,3.1,4.0,34,0.00,,---,0.00,VWS V12.07,2013-03-01 15:55:00,
2013-03-01 11:03:00,41.2,14.3,29.41,NNE,30,2.7,3.1,33,0.00,,---,0.00,VWS V12.07,2013-03-01 16:03:00,
2013-03-01 11:11:00,41.2,13.6,29.41,North,11,4.0,6.3,32,0.00,,---,0.00,VWS V12.07,2013-03-01 16:11:00,
2013-03-01 11:19:00,41.0,13.4,29.41,NW,305,4.9,5.4,32,0.00,,---,0.00,VWS V12.07,2013-03-01 16:19:00,
2013-03-01 11:27:00,41.2,13.6,29.44,WNW,290,0.0,7.6,32,0.00,,---,0.00,VWS V12.07,2013-03-01 16:27:00,
2013-03-01 11:35:00,41.2,13.6,29.44,East,89,0.0,5.4,32,0.00,,---,0.00,VWS V12.07,2013-03-01 16:35:00,
2013-03-01 11:43:00,41.0,13.4,29.44,NNE,17,0.0,5.4,32,0.00,,---,0.00,VWS V12.07,2013-03-01 16:43:00,
2013-03-01 11:50:00,41.0,13.4,29.44,NE,52,3.1,5.8,32,0.00,,---,0.00,VWS V12.07,2013-03-01 16:50:00,
2013-03-01 11:58:00,40.8,13.3,29.44,NNW,335,2.7,5.8,32,0.00,,---,0.00,VWS V12.07,2013-03-01 16:58:00,
2013-03-01 12:06:00,40.8,13.3,29.41,West,271,4.0,5.8,32,0.00,,---,0.00,VWS V12.07,2013-03-01 17:06:00,
2013-03-01 12:13:00,40.6,12.4,29.41,NNW,342,2.2,5.8,31,0.00,,---,0.00,VWS V12.07,2013-03-01 17:13:00,
2013-03-01 12:21:00,40.6,12.4,29.41,NW,324,0.0,5.8,31,0.00,,---,0.00,VWS V12.07,2013-03-01 17:21:00,
2013-03-01 12:29:00,40.8,12.5,29.41,WNW,283,3.1,3.1,31,0.00,,---,0.00,VWS V12.07,2013-03-01 17:29:00,
2013-03-01 12:37:00,40.8,12.5,29.41,WNW,286,0.0,6.7,31,0.00,,---,0.00,VWS V12.07,2013-03-01 17:37:00,
2013-03-01 12:45:00,40.8,12.5,29.41,NE,51,5.4,5.4,31,0.00,,---,0.00,VWS V12.07,2013-03-01 17:45:00,
2013-03-01 12:53:00,40.8,11.8,29.41,WNW,293,2.7,6.3,30,0.00,,---,0.00,VWS V12.07,2013-03-01 17:53:00,
2013-03-01 13:01:00,41.0,12.0,29.41,West,263,4.0,7.2,30,0.00,,---,0.00,VWS V12.07,2013-03-01 18:01:00,
2013-03-01 13:09:00,41.0,12.0,29.41,NW,310,2.7,7.2,30,0.00,,---,0.00,VWS V12.07,2013-03-01 18:09:00,
2013-03-01 13:17:00,41.0,12.0,29.41,NW,322,0.0,4.0,30,0.00,,---,0.00,VWS V12.07,2013-03-01 18:17:00,
2013-03-01 13:25:00,40.6,11.6,29.41,SW,235,2.7,4.0,30,0.00,,---,0.00,VWS V12.07,2013-03-01 18:25:00,
2013-03-01 13:33:00,40.6,11.6,29.41,West,264,4.0,4.0,30,0.00,,---,0.00,VWS V12.07,2013-03-01 18:33:00,
2013-03-01 13:41:00,40.5,11.5,29.41,NW,311,2.2,5.4,30,0.00,,---,0.00,VWS V12.07,2013-03-01 18:41:00,
2013-03-01 13:48:00,40.5,11.5,29.41,WNW,292,2.7,3.6,30,0.00,,---,0.00,VWS V12.07,2013-03-01 18:48:00,
2013-03-01 13:56:00,40.5,11.5,29.41,NNE,19,0.0,4.0,30,0.00,,---,0.00,VWS V12.07,2013-03-01 18:56:00,
2013-03-01 14:04:00,40.6,11.6,29.41,WSW,251,3.1,4.0,30,0.00,,---,0.00,VWS V12.07,2013-03-01 19:04:00,
2013-03-01 14:12:00,40.6,11.6,29.41,WNW,303,0.0,4.0,30,0.00,,---,0.00,VWS V12.07,2013-03-01 19:12:00,
2013-03-01 14:20:00,40.8,11.8,29.41,North,353,6.3,6.3,30,0.00,,---,0.00,VWS V12.07,2013-03-01 19:20:00,
2013-03-01 14:28:00,41.0,12.0,29.41,NNE,18,0.0,6.3,30,0.00,,---,0.00,VWS V12.07,2013-03-01 19:28:00,
2013-03-01 14:36:00,41.0,11.2,29.41,ENE,74,0.0,4.0,29,0.00,,---,0.00,VWS V12.07,2013-03-01 19:36:00,
2013-03-01 14:43:00,41.2,11.4,29.41,WSW,246,0.0,5.4,29,0.00,,---,0.00,VWS V12.07,2013-03-01 19:43:00,
2013-03-01 14:51:00,41.2,11.4,29.41,NNE,20,0.0,4.0,29,0.00,,---,0.00,VWS V12.07,2013-03-01 19:51:00,
2013-03-01 14:59:00,41.0,11.2,29.41,WNW,288,3.1,3.1,29,0.00,,---,0.00,VWS V12.07,2013-03-01 19:59:00,
2013-03-01 15:07:00,40.6,11.6,29.41,WNW,294,3.6,7.6,30,0.00,,---,0.00,VWS V12.07,2013-03-01 20:07:00,
2013-03-01 15:15:00,40.5,11.5,29.41,WNW,295,3.6,4.0,30,0.00,,---,0.00,VWS V12.07,2013-03-01 20:15:00,
2013-03-01 15:21:00,40.5,11.5,29.44,ENE,78,3.1,4.0,30,0.00,,---,0.00,VWS V12.07,2013-03-01 20:21:00,
2013-03-01 15:29:00,40.3,11.3,29.44,WNW,302,6.7,6.7,30,0.00,,---,0.00,VWS V12.07,2013-03-01 20:29:00,
2013-03-01 15:37:00,40.3,11.3,29.44,North,1,2.7,6.7,30,0.00,,---,0.00,VWS V12.07,2013-03-01 20:37:00,
2013-03-01 15:45:00,40.3,11.3,29.44,WSW,256,3.6,3.6,30,0.00,,---,0.00,VWS V12.07,2013-03-01 20:45:00,
2013-03-01 15:53:00,40.1,11.2,29.44,North,350,3.1,4.9,30,0.00,,---,0.00,VWS V12.07,2013-03-01 20:53:00,
2013-03-01 16:00:00,39.9,11.0,29.44,NE,43,3.6,4.0,30,0.00,,---,0.00,VWS V12.07,2013-03-01 21:00:00,
2013-03-01 16:08:00,39.9,11.0,29.44,East,83,0.0,4.0,30,0.00,,---,0.00,VWS V12.07,2013-03-01 21:08:00,
2013-03-01 16:16:00,39.9,11.0,29.44,ENE,75,0.0,2.7,30,0.00,,---,0.00,VWS V12.07,2013-03-01 21:16:00,
2013-03-01 16:22:00,39.7,10.9,29.44,South,184,3.1,4.0,30,0.00,,---,0.00,VWS V12.07,2013-03-01 21:22:00,
2013-03-01 16:30:00,39.7,10.9,29.44,North,6,0.0,5.8,30,0.00,,---,0.00,VWS V12.07,2013-03-01 21:30:00,
2013-03-01 16:38:00,39.7,10.9,29.44,WSW,249,0.0,5.8,30,0.00,,---,0.00,VWS V12.07,2013-03-01 21:38:00,
2013-03-01 16:46:00,39.7,10.9,29.44,West,275,4.0,4.0,30,0.00,,---,0.00,VWS V12.07,2013-03-01 21:46:00,
2013-03-01 16:54:00,39.6,10.7,29.44,WNW,300,0.0,6.3,30,0.00,,---,0.00,VWS V12.07,2013-03-01 21:54:00,
2013-03-01 17:02:00,39.4,10.5,29.44,WNW,291,2.2,3.6,30,0.00,,---,0.00,VWS V12.07,2013-03-01 22:02:00,
2013-03-01 17:07:00,39.4,10.5,29.44,North,4,0.0,3.6,30,0.00,,---,0.00,VWS V12.07,2013-03-01 22:07:00,
2013-03-01 17:15:00,39.4,10.5,29.44,NNW,341,0.0,0.0,30,0.00,,---,0.00,VWS V12.07,2013-03-01 22:15:00,
2013-03-01 17:23:00,39.2,10.4,29.44,North,353,0.0,5.4,30,0.00,,---,0.00,VWS V12.07,2013-03-01 22:23:00,
2013-03-01 17:29:00,39.2,10.4,29.44,NE,48,0.0,2.2,30,0.00,,---,0.00,VWS V12.07,2013-03-01 22:29:00,
2013-03-01 17:37:00,39.2,10.4,29.47,NNE,33,0.0,4.9,30,0.00,,---,0.00,VWS V12.07,2013-03-01 22:37:00,
2013-03-01 17:45:00,39.0,11.0,29.47,NW,314,0.0,0.0,31,0.00,,---,0.00,VWS V12.07,2013-03-01 22:45:00,
2013-03-01 17:53:00,39.0,11.0,29.47,North,0,0.0,4.0,31,0.00,,---,0.00,VWS V12.07,2013-03-01 22:53:00,
2013-03-01 18:01:00,38.8,10.8,29.47,WNW,297,0.0,0.0,31,0.00,,---,0.00,VWS V12.07,2013-03-01 23:01:00,
2013-03-01 18:08:00,38.8,10.8,29.47,WNW,288,0.0,3.1,31,0.00,,---,0.00,VWS V12.07,2013-03-01 23:08:00,
2013-03-01 18:16:00,38.8,10.8,29.47,West,265,0.0,0.0,31,0.00,,---,0.00,VWS V12.07,2013-03-01 23:16:00,
2013-03-01 18:23:00,38.7,10.6,29.47,West,265,0.0,3.6,31,0.00,,---,0.00,VWS V12.07,2013-03-01 23:23:00,
2013-03-01 18:31:00,38.7,10.6,29.47,NW,310,0.0,4.0,31,0.00,,---,0.00,VWS V12.07,2013-03-01 23:31:00,
2013-03-01 18:39:00,38.7,10.6,29.47,NW,307,0.0,4.5,31,0.00,,---,0.00,VWS V12.07,2013-03-01 23:39:00,
2013-03-01 18:47:00,38.7,10.6,29.47,NNW,333,0.0,0.0,31,0.00,,---,0.00,VWS V12.07,2013-03-01 23:47:00,
2013-03-01 18:55:00,38.5,10.5,29.47,NNW,333,0.0,0.0,31,0.00,,---,0.00,VWS V12.07,2013-03-01 23:55:00,
2013-03-01 19:03:00,38.5,10.5,29.47,NNW,333,0.0,0.0,31,0.00,,---,0.00,VWS V12.07,2013-03-02 00:03:00,
2013-03-01 19:11:00,38.5,10.5,29.47,NNW,333,0.0,0.0,31,0.00,,---,0.00,VWS V12.07,2013-03-02 00:11:00,
2013-03-01 19:19:00,38.3,10.3,29.47,NNW,333,2.2,3.1,31,0.00,,---,0.00,VWS V12.07,2013-03-02 00:19:00,
2013-03-01 19:27:00,38.3,10.3,29.47,NNW,333,0.0,3.1,31,0.00,,---,0.00,VWS V12.07,2013-03-02 00:27:00,
2013-03-01 19:35:00,38.1,10.2,29.47,NNW,334,0.0,0.0,31,0.00,,---,0.00,VWS V12.07,2013-03-02 00:35:00,
2013-03-01 19:42:00,38.1,10.2,29.47,NNW,333,0.0,2.2,31,0.00,,---,0.00,VWS V12.07,2013-03-02 00:42:00,
2013-03-01 19:50:00,38.1,10.2,29.47,NNW,334,0.0,0.0,31,0.00,,---,0.00,VWS V12.07,2013-03-02 00:50:00,
2013-03-01 19:58:00,38.1,10.2,29.47,NNW,333,0.0,2.7,31,0.00,,---,0.00,VWS V12.07,2013-03-02 00:58:00,
2013-03-01 20:06:00,38.1,10.2,29.47,NNW,333,0.0,3.6,31,0.00,,---,0.00,VWS V12.07,2013-03-02 01:06:00,
2013-03-01 20:14:00,37.9,10.0,29.47,NW,308,2.2,4.0,31,0.00,,---,0.00,VWS V12.07,2013-03-02 01:14:00,
2013-03-01 20:21:00,37.9,10.0,29.47,SSW,192,0.0,4.0,31,0.00,,---,0.00,VWS V12.07,2013-03-02 01:21:00,
2013-03-01 20:29:00,37.9,10.0,29.47,NNW,329,0.0,5.8,31,0.00,,---,0.00,VWS V12.07,2013-03-02 01:29:00,
2013-03-01 20:37:00,37.8,9.9,29.47,NNW,339,0.0,6.3,31,0.00,,---,0.00,VWS V12.07,2013-03-02 01:37:00,
2013-03-01 20:44:00,37.8,9.9,29.47,SSE,150,2.7,6.3,31,0.00,,---,0.00,VWS V12.07,2013-03-02 01:44:00,
2013-03-01 20:50:00,37.8,9.9,29.47,NE,39,0.0,3.6,31,0.00,,---,0.00,VWS V12.07,2013-03-02 01:50:00,
2013-03-01 20:58:00,37.8,9.9,29.47,North,0,0.0,4.0,31,0.00,,---,0.00,VWS V12.07,2013-03-02 01:58:00,
2013-03-01 21:05:00,37.8,9.9,29.47,NW,305,0.0,4.0,31,0.00,,---,0.00,VWS V12.07,2013-03-02 02:05:00,
2013-03-01 21:13:00,37.6,9.7,29.47,NW,318,2.2,5.4,31,0.00,,---,0.00,VWS V12.07,2013-03-02 02:13:00,
2013-03-01 21:20:00,37.6,9.7,29.47,NNE,32,0.0,3.6,31,0.00,,---,0.00,VWS V12.07,2013-03-02 02:20:00,
2013-03-01 21:28:00,37.6,9.7,29.47,North,9,0.0,4.0,31,0.00,,---,0.00,VWS V12.07,2013-03-02 02:28:00,
2013-03-01 21:36:00,37.4,9.5,29.47,South,183,0.0,3.6,31,0.00,,---,0.00,VWS V12.07,2013-03-02 02:36:00,
2013-03-01 21:43:00,37.4,9.5,29.47,NE,35,0.0,7.6,31,0.00,,---,0.00,VWS V12.07,2013-03-02 02:43:00,
2013-03-01 21:51:00,37.2,10.1,29.47,NNE,17,0.0,4.0,32,0.00,,---,0.00,VWS V12.07,2013-03-02 02:51:00,
2013-03-01 21:58:00,37.2,10.1,29.47,NNE,25,0.0,4.0,32,0.00,,---,0.00,VWS V12.07,2013-03-02 02:58:00,
2013-03-01 22:06:00,37.0,9.9,29.47,WNW,299,2.2,3.1,32,0.00,,---,0.00,VWS V12.07,2013-03-02 03:06:00,
2013-03-01 22:13:00,37.0,9.9,29.47,ENE,78,0.0,4.5,32,0.00,,---,0.00,VWS V12.07,2013-03-02 03:13:00,
2013-03-01 22:21:00,37.0,9.9,29.47,ENE,78,0.0,2.2,32,0.00,,---,0.00,VWS V12.07,2013-03-02 03:21:00,
2013-03-01 22:29:00,36.9,9.8,29.47,ESE,113,4.0,4.0,32,0.00,,---,0.00,VWS V12.07,2013-03-02 03:29:00,
2013-03-01 22:37:00,36.9,10.5,29.47,East,80,2.2,3.6,33,0.00,,---,0.00,VWS V12.07,2013-03-02 03:37:00,
2013-03-01 22:45:00,36.9,10.5,29.47,WSW,255,0.0,0.0,33,0.00,,---,0.00,VWS V12.07,2013-03-02 03:45:00,
2013-03-01 22:53:00,36.7,10.3,29.47,WSW,244,0.0,5.4,33,0.00,,---,0.00,VWS V12.07,2013-03-02 03:53:00,
2013-03-01 23:01:00,36.7,10.3,29.47,NNW,340,0.0,3.6,33,0.00,,---,0.00,VWS V12.07,2013-03-02 04:01:00,
2013-03-01 23:09:00,36.7,10.3,29.47,NNW,343,2.7,4.0,33,0.00,,---,0.00,VWS V12.07,2013-03-02 04:09:00,
2013-03-01 23:17:00,36.7,10.3,29.47,North,0,0.0,3.1,33,0.00,,---,0.00,VWS V12.07,2013-03-02 04:17:00,
2013-03-01 23:24:00,36.5,10.1,29.47,NW,311,0.0,4.9,33,0.00,,---,0.00,VWS V12.07,2013-03-02 04:24:00,
2013-03-01 23:33:00,36.5,10.1,29.47,NNE,17,0.0,2.2,33,0.00,,---,0.00,VWS V12.07,2013-03-02 04:33:00,
2013-03-01 23:40:00,36.5,10.1,29.47,NNW,329,0.0,4.9,33,0.00,,---,0.00,VWS V12.07,2013-03-02 04:40:00,
2013-03-01 23:49:00,36.3,10.6,29.47,NW,324,2.7,4.0,34,0.00,,---,0.00,VWS V12.07,2013-03-02 04:49:00,
2013-03-01 23:56:00,36.3,10.6,29.47,NNE,23,0.0,4.5,34,0.00,,---,0.00,VWS V12.07,2013-03-02 04:56:00,